Location: Wheeling
(40.0640°N, 80.7210°W)
Time: 11:56:14
(UTC-04:00)

Hubble Space Telescope - Visible Passes

Search period start: 23 July 2021 00:00
Search period end: 02 August 2021 00:00
Orbit: 535 x 539 km, 28.5° (Epoch: 22 July)

Date Brightness Start Highest point End Pass type
(mag) Time Alt. Az. Time Alt. Az. Time Alt. Az.
23 Jul 2.8 21:39:41 10° S 21:41:13 12° SSE 21:42:05 11° SSE visible
24 Jul 2.8 21:28:09 10° SSW 21:30:06 13° S 21:31:56 10° SE visible
25 Jul 2.7 21:16:46 10° SSW 21:19:00 14° S 21:21:14 10° SE visible
25 Jul 3.3 22:56:57 10° SW 22:56:58 10° SW 22:56:58 10° SW visible
26 Jul 3.1 22:46:00 10° SW 22:46:36 12° SW 22:46:36 12° SW visible
27 Jul 3.0 22:35:07 10° SW 22:36:09 13° SSW 22:36:09 13° SSW visible
28 Jul 3.0 22:24:20 10° SW 22:25:39 12° SSW 22:25:39 12° SSW visible
29 Jul 3.0 22:13:45 10° SSW 22:15:02 11° SSW 22:15:07 11° SSW visible
